Location: Korczew
(51.3586°N, 19.4491°E)
Time: 18:11:09
(UTC+00:00)

Cosmos 1633 Rocket - Pass Details

Date: 19 May 2025
Orbit: 600 x 618 km, 82.5° (Epoch: 20 June)

Event Time Altitude Azimuth Distance (km) Brightness Sun altitude
Rises 22:52:44 0° 350° (N) 2,886 8.0 -18.6°
Reaches altitude 10° 22:54:59 10° 351° (N) 1,974 6.8 -18.6°
Maximum altitude 22:59:21 81° 79° (E) 621 3.0 -18.5°
Enters shadow 23:00:54 39° 162° (SSE) 910 3.4 -18.5°
